DW0967 Weather Reports


Display with metric or nautical units.
time (UTC)temp
F
wind
direction
speed
MPH
gust
MPH
rain 1hr
in
rain 24hr
in
rain mn
in
humidity
%
barometer
mb
20220519051213 62 245 2.0 3.0 0.00 0.00 0.00 38 1014.1
20220519050714 62 260 2.0 5.0 0.00 0.00 0.00 41 1014.1
20220519050215 62 262 4.0 5.0 0.00 0.00 0.00 42 1014.1
20220519044725 63 256 2.0 3.0 0.00 0.00 0.00 47 1014.1
20220519043221 63 257 1.0 5.0 0.00 0.00 0.00 46 1014.1
20220519034713 66 267 3.0 5.0 0.00 0.00 0.00 44 1014.2
20220519034213 66 259 2.0 3.0 0.00 0.00 0.00 44 1014.2
20220519033713 65 248 2.0 5.0 0.00 0.00 0.00 45 1014.2
20220519031213 67 253 1.0 3.0 0.00 0.00 0.00 42 1014.1
20220519030713 67 245 2.0 3.0 0.00 0.00 0.00 42 1014.1
20220519030213 67 177 2.0 3.0 0.00 0.00 0.00 42 1014.1
20220519024713 69 177 0.0 2.0 0.00 0.00 0.00 39 1014.1
20220519024213 69 177 1.0 3.0 0.00 0.00 0.00 38 1014.1
20220519021713 71 168 5.0 7.0 0.00 0.00 0.00 36 1013.8
20220519021213 72 157 3.0 6.0 0.00 0.00 0.00 36 1013.8
20220519020713 72 155 3.0 6.0 0.00 0.00 0.00 35 1013.8
20220519020213 72 184 3.0 9.0 0.00 0.00 0.00 35 1013.8
20220519014713 73 153 5.0 7.0 0.00 0.00 0.00 35 1013.5
20220519014213 73 144 4.0 9.0 0.00 0.00 0.00 35 1013.5
20220519011213 75 151 3.0 5.0 0.00 0.00 0.00 25 1013.0
20220519010213 75 166 2.0 5.0 0.00 0.00 0.00 26 1013.2
20220519004213 75 132 3.0 9.0 0.00 0.00 0.00 25 1013.2
20220519003213 76 131 3.0 10.0 0.00 0.00 0.00 26 1013.3
20220519001713 76 145 3.0 5.0 0.00 0.00 0.00 27 1013.8
20220519001214 76 134 3.0 5.0 0.00 0.00 0.00 26 1013.8
20220519000713 76 146 5.0 7.0 0.00 0.00 0.00 26 1013.8
20220518234213 78 140 3.0 7.0 0.00 0.00 0.00 25 1013.8
20220518231713 81 95 6.0 12.0 0.00 0.00 0.00 24 1013.8
20220518230712 81 78 9.0 18.0 0.00 0.00 0.00 20 1013.8
20220518223713 81 76 6.0 12.0 0.00 0.00 0.00 21 1014.2
20220518223213 80 67 10.0 17.0 0.00 0.00 0.00 22 1015.3
20220518221713 80 92 3.0 10.0 0.00 0.00 0.00 26 1015.3
20220518220713 80 85 5.0 10.0 0.00 0.00 0.00 26 1015.3
20220518220213 81 99 3.0 10.0 0.00 0.00 0.00 26 1015.3
20220518213213 81 93 4.0 18.0 0.00 0.00 0.00 28 1015.3
20220518210713 80 61 8.0 15.0 0.00 0.00 0.00 27 1015.4
20220518203713 79 23 7.0 20.0 0.00 0.00 0.00 30 1015.9
20220518201713 78 25 6.0 14.0 0.00 0.00 0.00 30 1016.0
20220518201213 79 329 6.0 12.0 0.00 0.00 0.00 27 1016.3
20220518200712 79 29 10.0 18.0 0.00 0.00 0.00 29 1016.3
20220518191713 78 334 1.0 3.0 0.00 0.00 0.00 28 1017.1
20220518191213 78 254 2.0 5.0 0.00 0.00 0.00 29 1017.1
20220518190219 77 277 4.0 10.0 0.00 0.00 0.00 30 1017.5
20220518184213 77 1 5.0 12.0 0.00 0.00 0.00 31 1018.0
20220518183213 76 16 9.0 14.0 0.00 0.00 0.00 32 1018.0
20220518181712 77 39 6.0 12.0 0.00 0.00 0.00 34 1018.7
20220518180713 76 68 2.0 7.0 0.00 0.00 0.00 32 1018.7
20220518180213 75 159 0.0 10.0 0.00 0.00 0.00 31 1018.7
20220518174712 75 96 3.0 7.0 0.00 0.00 0.00 30 1018.7
20220518174213 74 97 5.0 10.0 0.00 0.00 0.00 31 1018.7
20220518173212 73 72 2.0 12.0 0.00 0.00 0.00 37 1018.7
20220518171712 73 43 4.0 12.0 0.00 0.00 0.00 32 1018.9
20220518171213 73 98 5.0 15.0 0.00 0.00 0.00 32 1019.0
20220518170212 72 73 4.0 10.0 0.00 0.00 0.00 33 1019.0
20220518164712 71 60 3.0 7.0 0.00 0.00 0.00 37 1019.0
20220518164212 70 8 5.0 13.0 0.00 0.00 0.00 35 1019.0
20220518163712 70 65 3.0 7.0 0.00 0.00 0.00 35 1019.0
20220518161713 70 45 4.0 9.0 0.00 0.00 0.00 37 1019.0
20220518161213 70 60 4.0 6.0 0.00 0.00 0.00 38 1019.0
20220518160713 70 38 3.0 6.0 0.00 0.00 0.00 37 1019.0
20220518160213 71 69 2.0 12.0 0.00 0.00 0.00 38 1019.2
20220518154713 69 89 2.0 6.0 0.00 0.00 0.00 35 1019.2
20220518154213 68 41 3.0 5.0 0.00 0.00 0.00 36 1019.2
20220518153713 68 36 3.0 5.0 0.00 0.00 0.00 36 1019.2
20220518153213 68 14 3.0 9.0 0.00 0.00 0.00 37 1019.2
20220518151213 67 18 3.0 6.0 0.00 0.00 0.00 38 1019.6
20220518150713 67 23 4.0 6.0 0.00 0.00 0.00 37 1019.6
20220518150213 67 351 3.0 9.0 0.00 0.00 0.00 39 1019.6
20220518144712 65 305 3.0 5.0 0.00 0.00 0.00 40 1019.6
20220518144213 65 296 3.0 6.0 0.00 0.00 0.00 40 1019.6
20220518143712 64 273 3.0 5.0 0.00 0.00 0.00 42 1019.6
20220518143213 63 274 3.0 7.0 0.00 0.00 0.00 44 1019.6
20220518141712 61 294 3.0 6.0 0.00 0.00 0.00 45 1019.6
20220518140713 61 305 5.0 6.0 0.00 0.00 0.00 46 1019.6
20220518134712 58 355 2.0 3.0 0.00 0.00 0.00 51 1019.6
20220518133713 58 244 2.0 3.0 0.00 0.00 0.00 53 1019.6
20220518131712 56 242 1.0 2.0 0.00 0.00 0.00 55 1019.8
20220518130713 56 241 1.0 2.0 0.00 0.00 0.00 60 1019.8
20220518121714 55 172 5.0 7.0 0.00 0.00 0.00 52 1019.5
20220518120712 55 163 3.0 3.0 0.00 0.00 0.00 54 1019.7
20220518120213 55 163 1.0 6.0 0.00 0.00 0.00 53 1019.7
20220518114213 54 186 3.0 3.0 0.00 0.00 0.00 55 1019.7
20220518113230 55 265 1.0 6.0 0.00 0.00 0.00 51 1019.4
20220518111712 55 254 2.0 3.0 0.00 0.00 0.00 52 1019.4
20220518110713 55 246 2.0 3.0 0.00 0.00 0.00 53 1019.4
20220518110212 55 292 2.0 3.0 0.00 0.00 0.00 53 1019.4
20220518104713 56 355 0.0 1.0 0.00 0.00 0.00 49 1019.4
20220518104213 56 355 0.0 2.0 0.00 0.00 0.00 48 1019.4
20220518103713 58 355 1.0 3.0 0.00 0.00 0.00 48 1019.0
20220518101713 58 341 3.0 5.0 0.00 0.00 0.00 45 1019.0
20220518101212 58 306 3.0 3.0 0.00 0.00 0.00 45 1019.0
20220518100713 58 270 2.0 5.0 0.00 0.00 0.00 45 1019.0
20220518100213 58 265 3.0 7.0 0.00 0.00 0.00 46 1019.0
20220518094212 57 265 3.0 6.0 0.00 0.00 0.00 46 1018.5
20220518093713 57 262 3.0 6.0 0.00 0.00 0.00 46 1018.6
20220518091219 58 253 5.0 7.0 0.00 0.00 0.00 46 1018.2
20220518090233 57 263 6.0 9.0 0.00 0.00 0.00 46 1018.2
20220518084712 58 258 3.0 5.0 0.00 0.00 0.00 46 1018.4
20220518084213 58 262 3.0 3.0 0.00 0.00 0.00 45 1018.4
20220518083713 59 272 3.0 3.0 0.00 0.00 0.00 44 1018.4
20220518083212 60 277 3.0 10.0 0.00 0.00 0.00 43 1018.4
20220518081713 59 265 5.0 8.0 0.00 0.00 0.00 44 1018.5
20220518080713 59 289 3.0 6.0 0.00 0.00 0.00 45 1018.5
20220518080213 59 230 3.0 6.0 0.00 0.00 0.00 45 1018.5
20220518074212 59 263 7.0 13.0 0.00 0.00 0.00 45 1018.5
20220518073712 59 263 6.0 10.0 0.00 0.00 0.00 44 1018.5
20220518073212 60 258 7.0 12.0 0.00 0.00 0.00 44 1018.5
20220518070713 60 235 7.0 14.0 0.00 0.00 0.00 45 1018.5
20220518070212 59 228 6.0 10.0 0.00 0.00 0.00 46 1018.5
20220518064713 58 243 5.0 7.0 0.00 0.00 0.00 48 1018.4
20220518064212 58 248 5.0 7.0 0.00 0.00 0.00 49 1018.4
20220518061713 58 253 2.0 5.0 0.00 0.00 0.00 48 1018.2
20220518060713 58 253 2.0 5.0 0.00 0.00 0.00 48 1018.4
20220518060213 58 218 3.0 5.0 0.00 0.00 0.00 50 1018.4
20220518054712 58 225 2.0 3.0 0.00 0.00 0.00 51 1019.0
20220518053713 59 253 3.0 5.0 0.00 0.00 0.00 50 1019.0